Location: Bukovany
(49.8234°N, 14.6297°E)
Time: 16:10:06
(UTC+00:00)

Cosmos 1092 Rocket - Pass Details

Date: 17 November 2025
Orbit: 953 x 995 km, 82.9° (Epoch: 13 December)

Event Time Altitude Azimuth Distance (km) Brightness Sun altitude
Rises 17:42:50 0° 351° (N) 3,698 7.1 -23.5°
Reaches altitude 10° 17:45:23 10° 354° (N) 2,740 6.4 -23.9°
Maximum altitude 17:51:39 71° 78° (ENE) 1,028 3.8 -24.9°
Enters shadow 17:54:57 29° 156° (SSE) 1,687 5.0 -25.5°
